Time,TemperatureF,DewpointF,PressureIn,WindDirection,WindDirectionDegrees,WindSpeedMPH,WindSpeedGustMPH,Humidity,HourlyPrecipIn,Conditions,Clouds,dailyrainin,SoftwareType,DateUTC
2013-04-21 00:00:00,58.0,47.1,29.96,West,265,0.0,0.0,67,0.00,,,0.00,WeatherCatV1.15B25,2013-04-21 07:00:00,
2013-04-21 00:05:00,57.8,47.3,29.95,West,265,0.0,0.0,68,0.00,,,0.00,WeatherCatV1.15B25,2013-04-21 07:05:00,
2013-04-21 00:10:00,57.6,47.1,29.95,West,266,0.0,0.0,68,0.00,,,0.00,WeatherCatV1.15B25,2013-04-21 07:10:00,
2013-04-21 00:15:00,57.5,47.4,29.95,West,266,0.0,0.0,69,0.00,,,0.00,WeatherCatV1.15B25,2013-04-21 07:15:00,
2013-04-21 00:20:00,57.3,47.2,29.95,West,266,0.0,0.0,69,0.00,,,0.00,WeatherCatV1.15B25,2013-04-21 07:20:00,
2013-04-21 00:25:00,57.1,47.0,29.95,West,265,0.0,0.0,69,0.00,,,0.00,WeatherCatV1.15B25,2013-04-21 07:25:00,
2013-04-21 00:30:00,56.9,46.8,29.95,West,266,0.0,0.0,69,0.00,,,0.00,WeatherCatV1.15B25,2013-04-21 07:30:00,
2013-04-21 00:35:00,56.7,46.6,29.95,West,265,0.0,0.0,69,0.00,,,0.00,WeatherCatV1.15B25,2013-04-21 07:35:00,
2013-04-21 00:40:00,56.4,47.1,29.95,West,265,0.0,0.0,71,0.00,,,0.00,WeatherCatV1.15B25,2013-04-21 07:40:00,
2013-04-21 00:45:00,56.2,47.3,29.95,West,265,0.0,0.0,72,0.00,,,0.00,WeatherCatV1.15B25,2013-04-21 07:45:00,
2013-04-21 00:50:00,56.0,47.5,29.95,West,266,0.0,0.0,73,0.00,,,0.00,WeatherCatV1.15B25,2013-04-21 07:50:00,
2013-04-21 00:55:00,55.7,46.8,29.95,West,266,0.0,0.0,72,0.00,,,0.00,WeatherCatV1.15B25,2013-04-21 07:55:00,
2013-04-21 01:00:00,55.3,46.4,29.95,West,265,0.0,0.0,72,0.00,,,0.00,WeatherCatV1.15B25,2013-04-21 08:00:00,
2013-04-21 01:05:00,55.0,46.1,29.95,West,266,0.0,0.0,72,0.00,,,0.00,WeatherCatV1.15B25,2013-04-21 08:05:00,
2013-04-21 01:10:00,54.7,45.9,29.95,West,265,0.0,0.0,72,0.00,,,0.00,WeatherCatV1.15B25,2013-04-21 08:10:00,
2013-04-21 01:15:00,54.4,45.9,29.95,West,265,0.0,0.0,73,0.00,,,0.00,WeatherCatV1.15B25,2013-04-21 08:15:00,
2013-04-21 01:20:00,54.0,45.5,29.95,West,266,0.0,0.0,73,0.00,,,0.00,WeatherCatV1.15B25,2013-04-21 08:20:00,
2013-04-21 01:25:00,53.8,46.4,29.95,West,266,0.0,0.0,76,0.00,,,0.00,WeatherCatV1.15B25,2013-04-21 08:25:00,
2013-04-21 01:30:00,53.6,46.9,29.95,West,266,0.0,0.0,78,0.00,,,0.00,WeatherCatV1.15B25,2013-04-21 08:30:00,
2013-04-21 01:36:00,53.4,47.4,29.95,West,266,0.0,0.0,80,0.00,,,0.00,WeatherCatV1.15B25,2013-04-21 08:36:00,
2013-04-21 01:41:00,53.3,47.3,29.95,West,266,0.0,0.0,80,0.00,,,0.00,WeatherCatV1.15B25,2013-04-21 08:41:00,
2013-04-21 01:46:00,53.2,47.2,29.95,West,266,0.0,0.0,80,0.00,,,0.00,WeatherCatV1.15B25,2013-04-21 08:46:00,
2013-04-21 01:51:00,53.1,46.8,29.95,West,265,0.0,0.0,79,0.00,,,0.00,WeatherCatV1.15B25,2013-04-21 08:51:00,
2013-04-21 01:56:00,52.9,46.6,29.95,West,266,0.0,0.0,79,0.00,,,0.00,WeatherCatV1.15B25,2013-04-21 08:56:00,
2013-04-21 02:01:00,52.6,45.9,29.95,West,266,0.0,0.0,78,0.00,,,0.00,WeatherCatV1.15B25,2013-04-21 09:01:00,
2013-04-21 02:06:00,52.3,45.6,29.94,West,266,0.0,0.0,78,0.00,,,0.00,WeatherCatV1.15B25,2013-04-21 09:06:00,
2013-04-21 02:11:00,52.1,45.5,29.94,West,265,0.0,0.0,78,0.00,,,0.00,WeatherCatV1.15B25,2013-04-21 09:11:00,
2013-04-21 02:16:00,51.8,45.2,29.94,West,266,0.0,0.0,78,0.00,,,0.00,WeatherCatV1.15B25,2013-04-21 09:16:00,
2013-04-21 02:21:00,51.5,45.2,29.94,West,266,0.0,0.0,79,0.00,,,0.00,WeatherCatV1.15B25,2013-04-21 09:21:00,
2013-04-21 02:26:00,51.3,45.0,29.93,West,265,0.0,0.0,79,0.00,,,0.00,WeatherCatV1.15B25,2013-04-21 09:26:00,
2013-04-21 02:31:00,51.1,44.8,29.93,West,266,0.0,0.0,79,0.00,,,0.00,WeatherCatV1.15B25,2013-04-21 09:31:00,
2013-04-21 02:36:00,50.9,44.6,29.93,West,266,0.0,0.0,79,0.00,,,0.00,WeatherCatV1.15B25,2013-04-21 09:36:00,
2013-04-21 02:41:00,50.6,44.3,29.93,West,266,0.0,0.0,79,0.00,,,0.00,WeatherCatV1.15B25,2013-04-21 09:41:00,
2013-04-21 02:46:00,50.4,44.5,29.93,West,265,0.0,0.0,80,0.00,,,0.00,WeatherCatV1.15B25,2013-04-21 09:46:00,
2013-04-21 02:51:00,50.3,44.7,29.93,West,266,0.0,0.0,81,0.00,,,0.00,WeatherCatV1.15B25,2013-04-21 09:51:00,
2013-04-21 02:56:00,50.1,44.5,29.93,West,266,0.0,0.0,81,0.00,,,0.00,WeatherCatV1.15B25,2013-04-21 09:56:00,
2013-04-21 03:01:00,49.9,44.3,29.93,West,265,0.0,0.0,81,0.00,,,0.00,WeatherCatV1.15B25,2013-04-21 10:01:00,
2013-04-21 03:06:00,49.7,44.1,29.93,West,266,0.0,0.0,81,0.00,,,0.00,WeatherCatV1.15B25,2013-04-21 10:06:00,
2013-04-21 03:11:00,49.6,44.0,29.92,West,266,0.0,0.0,81,0.00,,,0.00,WeatherCatV1.15B25,2013-04-21 10:11:00,
2013-04-21 03:16:00,49.4,43.8,29.92,West,265,0.0,0.0,81,0.00,,,0.00,WeatherCatV1.15B25,2013-04-21 10:16:00,
2013-04-21 03:21:00,49.1,43.8,29.92,West,265,0.0,0.0,82,0.00,,,0.00,WeatherCatV1.15B25,2013-04-21 10:21:00,
2013-04-21 03:26:00,49.0,44.1,29.92,West,266,0.0,0.0,83,0.00,,,0.00,WeatherCatV1.15B25,2013-04-21 10:26:00,
2013-04-21 03:31:00,48.9,44.3,29.92,West,266,0.0,0.0,84,0.00,,,0.00,WeatherCatV1.15B25,2013-04-21 10:31:00,
2013-04-21 03:36:00,48.8,44.5,29.92,West,265,0.0,0.0,85,0.00,,,0.00,WeatherCatV1.15B25,2013-04-21 10:36:00,
2013-04-21 03:41:00,48.6,44.0,29.92,West,266,0.0,0.0,84,0.00,,,0.00,WeatherCatV1.15B25,2013-04-21 10:41:00,
2013-04-21 03:46:00,48.5,43.9,29.92,West,266,0.0,0.0,84,0.00,,,0.00,WeatherCatV1.15B25,2013-04-21 10:46:00,
2013-04-21 03:51:00,48.3,43.7,29.92,West,265,0.0,0.0,84,0.00,,,0.00,WeatherCatV1.15B25,2013-04-21 10:51:00,
2013-04-21 03:56:00,48.1,43.5,29.92,West,266,0.0,0.0,84,0.00,,,0.00,WeatherCatV1.15B25,2013-04-21 10:56:00,
2013-04-21 04:01:00,47.9,43.3,29.92,West,266,0.0,0.0,84,0.00,,,0.00,WeatherCatV1.15B25,2013-04-21 11:01:00,
2013-04-21 04:06:00,47.7,43.1,29.93,West,265,0.0,0.0,84,0.00,,,0.00,WeatherCatV1.15B25,2013-04-21 11:06:00,
2013-04-21 04:11:00,47.5,42.9,29.93,West,265,0.0,0.0,84,0.00,,,0.00,WeatherCatV1.15B25,2013-04-21 11:11:00,
2013-04-21 04:16:00,47.4,42.8,29.93,West,266,0.0,0.0,84,0.00,,,0.00,WeatherCatV1.15B25,2013-04-21 11:16:00,
2013-04-21 04:21:00,47.1,42.5,29.93,West,266,0.0,0.0,84,0.00,,,0.00,WeatherCatV1.15B25,2013-04-21 11:21:00,
2013-04-21 04:26:00,47.0,42.7,29.93,West,266,0.0,0.0,85,0.00,,,0.00,WeatherCatV1.15B25,2013-04-21 11:26:00,
2013-04-21 04:31:00,46.9,42.6,29.93,West,266,0.0,0.0,85,0.00,,,0.00,WeatherCatV1.15B25,2013-04-21 11:31:00,
2013-04-21 04:36:00,46.7,42.4,29.93,West,266,0.0,0.0,85,0.00,,,0.00,WeatherCatV1.15B25,2013-04-21 11:36:00,
2013-04-21 04:41:00,46.7,43.0,29.93,West,266,0.0,0.0,87,0.00,,,0.00,WeatherCatV1.15B25,2013-04-21 11:41:00,
2013-04-21 04:46:00,46.7,43.3,29.93,West,265,0.0,0.0,88,0.00,,,0.00,WeatherCatV1.15B25,2013-04-21 11:46:00,
2013-04-21 04:51:00,46.6,43.2,29.93,West,266,0.0,0.0,88,0.00,,,0.00,WeatherCatV1.15B25,2013-04-21 11:51:00,
2013-04-21 04:56:00,46.4,42.7,29.93,West,266,0.0,0.0,87,0.00,,,0.00,WeatherCatV1.15B25,2013-04-21 11:56:00,
2013-04-21 05:01:00,46.3,42.6,29.93,West,266,0.0,0.0,87,0.00,,,0.00,WeatherCatV1.15B25,2013-04-21 12:01:00,
2013-04-21 05:06:00,46.1,42.4,29.93,West,266,0.0,0.0,87,0.00,,,0.00,WeatherCatV1.15B25,2013-04-21 12:06:00,
2013-04-21 05:11:00,46.0,42.3,29.93,West,266,0.0,0.0,87,0.00,,,0.00,WeatherCatV1.15B25,2013-04-21 12:11:00,
2013-04-21 05:16:00,45.9,42.5,29.93,West,266,0.0,0.0,88,0.00,,,0.00,WeatherCatV1.15B25,2013-04-21 12:16:00,
2013-04-21 05:21:00,45.8,42.5,29.93,West,265,0.0,0.0,88,0.00,,,0.00,WeatherCatV1.15B25,2013-04-21 12:21:00,
2013-04-21 05:26:00,45.7,42.4,29.93,West,266,0.0,0.0,88,0.00,,,0.00,WeatherCatV1.15B25,2013-04-21 12:26:00,
2013-04-21 05:31:00,45.7,42.6,29.93,West,266,0.0,0.0,89,0.00,,,0.00,WeatherCatV1.15B25,2013-04-21 12:31:00,
2013-04-21 05:36:00,45.7,42.6,29.93,West,266,0.0,0.0,89,0.00,,,0.00,WeatherCatV1.15B25,2013-04-21 12:36:00,
2013-04-21 05:41:00,45.7,42.6,29.93,West,266,0.0,0.0,89,0.00,,,0.00,WeatherCatV1.15B25,2013-04-21 12:41:00,
2013-04-21 05:46:00,45.7,42.9,29.93,West,266,0.0,0.0,90,0.00,,,0.00,WeatherCatV1.15B25,2013-04-21 12:46:00,
2013-04-21 05:51:00,45.7,42.9,29.93,West,266,0.0,0.0,90,0.00,,,0.00,WeatherCatV1.15B25,2013-04-21 12:51:00,
2013-04-21 05:56:00,45.7,42.9,29.93,West,265,0.0,0.0,90,0.00,,,0.00,WeatherCatV1.15B25,2013-04-21 12:56:00,
2013-04-21 06:01:00,45.6,42.8,29.93,West,265,0.0,0.0,90,0.00,,,0.00,WeatherCatV1.15B25,2013-04-21 13:01:00,
2013-04-21 06:06:00,45.6,42.8,29.93,West,279,0.0,0.0,90,0.00,,,0.00,WeatherCatV1.15B25,2013-04-21 13:06:00,
2013-04-21 06:11:00,45.6,42.8,29.93,WSW,248,0.0,0.0,90,0.00,,,0.00,WeatherCatV1.15B25,2013-04-21 13:11:00,
2013-04-21 06:16:00,45.6,42.8,29.93,WSW,248,0.0,1.0,90,0.00,,,0.00,WeatherCatV1.15B25,2013-04-21 13:16:00,
2013-04-21 06:21:00,45.7,43.2,29.93,WSW,248,0.0,1.0,91,0.00,,,0.00,WeatherCatV1.15B25,2013-04-21 13:21:00,
2013-04-21 06:26:00,45.8,43.3,29.94,WSW,248,0.0,0.0,91,0.00,,,0.00,WeatherCatV1.15B25,2013-04-21 13:26:00,
2013-04-21 06:31:00,45.9,43.4,29.94,WSW,248,0.0,0.0,91,0.00,,,0.00,WeatherCatV1.15B25,2013-04-21 13:31:00,
2013-04-21 06:36:00,45.9,43.4,29.95,WSW,248,0.0,0.0,91,0.00,,,0.00,WeatherCatV1.15B25,2013-04-21 13:36:00,
2013-04-21 06:41:00,45.9,43.4,29.95,WSW,248,0.0,0.0,91,0.00,,,0.00,WeatherCatV1.15B25,2013-04-21 13:41:00,
2013-04-21 06:46:00,45.9,43.4,29.95,WSW,248,0.0,0.0,91,0.00,,,0.00,WeatherCatV1.15B25,2013-04-21 13:46:00,
2013-04-21 06:51:00,45.9,43.4,29.95,WSW,248,0.0,0.0,91,0.00,,,0.00,WeatherCatV1.15B25,2013-04-21 13:51:00,
2013-04-21 06:56:00,45.9,43.4,29.95,WSW,248,0.0,0.0,91,0.00,,,0.00,WeatherCatV1.15B25,2013-04-21 13:56:00,
2013-04-21 07:01:00,46.1,43.6,29.95,WSW,248,0.0,0.0,91,0.00,,,0.00,WeatherCatV1.15B25,2013-04-21 14:01:00,
2013-04-21 07:06:00,46.4,44.2,29.95,WSW,248,0.0,1.0,92,0.00,,,0.00,WeatherCatV1.15B25,2013-04-21 14:06:00,
2013-04-21 07:11:00,46.8,44.6,29.96,WSW,240,0.0,0.0,92,0.00,,,0.00,WeatherCatV1.15B25,2013-04-21 14:11:00,
2013-04-21 07:16:00,47.4,44.9,29.96,WSW,240,0.0,0.0,91,0.00,,,0.00,WeatherCatV1.15B25,2013-04-21 14:16:00,
2013-04-21 07:21:00,48.2,45.7,29.96,WSW,240,0.0,0.0,91,0.00,,,0.00,WeatherCatV1.15B25,2013-04-21 14:21:00,
2013-04-21 07:26:00,49.0,46.2,29.96,WSW,240,0.0,0.0,90,0.00,,,0.00,WeatherCatV1.15B25,2013-04-21 14:26:00,
2013-04-21 07:31:00,49.7,46.6,29.97,WSW,240,0.0,0.0,89,0.00,,,0.00,WeatherCatV1.15B25,2013-04-21 14:31:00,
2013-04-21 07:36:00,50.5,46.8,29.97,WSW,240,0.0,0.0,87,0.00,,,0.00,WeatherCatV1.15B25,2013-04-21 14:36:00,
2013-04-21 07:41:00,51.3,46.9,29.97,WSW,240,0.0,0.0,85,0.00,,,0.00,WeatherCatV1.15B25,2013-04-21 14:41:00,
2013-04-21 07:46:00,52.0,47.3,29.97,WSW,240,0.0,0.0,84,0.00,,,0.00,WeatherCatV1.15B25,2013-04-21 14:46:00,
2013-04-21 07:51:00,52.6,47.3,29.97,WSW,240,0.0,0.0,82,0.00,,,0.00,WeatherCatV1.15B25,2013-04-21 14:51:00,
2013-04-21 07:56:00,53.1,47.4,29.97,WSW,240,0.0,1.0,81,0.00,,,0.00,WeatherCatV1.15B25,2013-04-21 14:56:00,
2013-04-21 08:01:00,53.6,47.9,29.97,WSW,240,0.0,0.0,81,0.00,,,0.00,WeatherCatV1.15B25,2013-04-21 15:01:00,
2013-04-21 08:06:00,54.2,48.5,29.97,WSW,240,0.0,0.0,81,0.00,,,0.00,WeatherCatV1.15B25,2013-04-21 15:06:00,
2013-04-21 08:11:00,55.0,49.3,29.97,WSW,240,0.0,0.0,81,0.00,,,0.00,WeatherCatV1.15B25,2013-04-21 15:11:00,
2013-04-21 08:16:00,55.7,49.3,29.97,WNW,296,0.0,1.0,79,0.00,,,0.00,WeatherCatV1.15B25,2013-04-21 15:16:00,
2013-04-21 08:21:00,56.5,49.4,29.97,WNW,296,0.0,1.0,77,0.00,,,0.00,WeatherCatV1.15B25,2013-04-21 15:21:00,
2013-04-21 08:26:00,57.4,50.2,29.97,WNW,296,0.0,0.0,77,0.00,,,0.00,WeatherCatV1.15B25,2013-04-21 15:26:00,
2013-04-21 08:31:00,58.2,49.6,29.97,WNW,296,0.0,0.0,73,0.00,,,0.00,WeatherCatV1.15B25,2013-04-21 15:31:00,
2013-04-21 08:36:00,58.9,50.3,29.97,WNW,296,0.0,3.0,73,0.00,,,0.00,WeatherCatV1.15B25,2013-04-21 15:36:00,
2013-04-21 08:41:00,59.9,50.5,29.98,WNW,296,1.0,1.0,71,0.00,,,0.00,WeatherCatV1.15B25,2013-04-21 15:41:00,
2013-04-21 08:46:00,60.4,50.6,29.98,WNW,297,0.0,1.0,70,0.00,,,0.00,WeatherCatV1.15B25,2013-04-21 15:46:00,
2013-04-21 08:51:00,61.3,51.4,29.98,WNW,297,0.0,1.0,70,0.00,,,0.00,WeatherCatV1.15B25,2013-04-21 15:51:00,
2013-04-21 08:56:00,62.2,51.9,29.98,WNW,296,0.0,1.0,69,0.00,,,0.00,WeatherCatV1.15B25,2013-04-21 15:56:00,
2013-04-21 09:01:00,62.6,51.9,29.98,WNW,297,0.0,0.0,68,0.00,,,0.00,WeatherCatV1.15B25,2013-04-21 16:01:00,
2013-04-21 09:06:00,63.4,53.0,29.98,WNW,297,0.0,0.0,69,0.00,,,0.00,WeatherCatV1.15B25,2013-04-21 16:06:00,
2013-04-21 09:11:00,64.2,52.6,29.98,WNW,297,0.0,1.0,66,0.00,,,0.00,WeatherCatV1.15B25,2013-04-21 16:11:00,
2013-04-21 09:16:00,65.0,52.1,29.98,WNW,296,0.0,2.0,63,0.00,,,0.00,WeatherCatV1.15B25,2013-04-21 16:16:00,
2013-04-21 09:21:00,65.8,52.4,29.98,WNW,296,0.0,1.0,62,0.00,,,0.00,WeatherCatV1.15B25,2013-04-21 16:21:00,
2013-04-21 09:26:00,66.4,52.5,29.98,WNW,292,1.0,2.0,61,0.00,,,0.00,WeatherCatV1.15B25,2013-04-21 16:26:00,
2013-04-21 09:31:00,66.6,51.8,29.98,WNW,293,0.0,1.0,59,0.00,,,0.00,WeatherCatV1.15B25,2013-04-21 16:31:00,
2013-04-21 09:36:00,66.9,52.1,29.98,WNW,292,0.0,2.0,59,0.00,,,0.00,WeatherCatV1.15B25,2013-04-21 16:36:00,
2013-04-21 09:41:00,67.5,52.2,29.98,WNW,293,0.0,0.0,58,0.00,,,0.00,WeatherCatV1.15B25,2013-04-21 16:41:00,
2013-04-21 09:46:00,68.3,52.0,29.98,WNW,293,0.0,1.0,56,0.00,,,0.00,WeatherCatV1.15B25,2013-04-21 16:46:00,
2013-04-21 09:51:00,69.0,53.1,29.98,WNW,292,0.0,0.0,57,0.00,,,0.00,WeatherCatV1.15B25,2013-04-21 16:51:00,
2013-04-21 09:56:00,69.7,51.8,29.98,NW,323,0.0,5.0,53,0.00,,,0.00,WeatherCatV1.15B25,2013-04-21 16:56:00,
2013-04-21 10:01:00,70.4,51.9,29.98,NW,323,3.0,3.0,52,0.00,,,0.00,WeatherCatV1.15B25,2013-04-21 17:01:00,
2013-04-21 10:02:00,70.4,51.4,29.98,NW,324,1.0,3.0,51,0.00,,,0.00,WeatherCatV1.15B25,2013-04-21 17:02:00,
2013-04-21 10:07:00,70.5,51.0,29.98,NW,322,0.0,2.0,50,0.00,,,0.00,WeatherCatV1.15B25,2013-04-21 17:07:00,
2013-04-21 10:12:00,70.7,51.1,29.98,NNW,346,1.0,3.0,50,0.00,,,0.00,WeatherCatV1.15B25,2013-04-21 17:12:00,
2013-04-21 10:17:00,70.7,51.1,29.98,NNW,344,1.0,1.0,50,0.00,,,0.00,WeatherCatV1.15B25,2013-04-21 17:17:00,
2013-04-21 10:22:00,71.1,50.4,29.98,WSW,254,0.0,2.0,48,0.00,,,0.00,WeatherCatV1.15B25,2013-04-21 17:22:00,
2013-04-21 10:27:00,71.6,50.9,29.98,NNE,25,0.0,2.0,48,0.00,,,0.00,WeatherCatV1.15B25,2013-04-21 17:27:00,
2013-04-21 10:32:00,72.0,50.7,29.99,WSW,244,0.0,8.0,47,0.00,,,0.00,WeatherCatV1.15B25,2013-04-21 17:32:00,
2013-04-21 10:37:00,72.4,51.0,29.99,WSW,242,2.0,3.0,47,0.00,,,0.00,WeatherCatV1.15B25,2013-04-21 17:37:00,
2013-04-21 10:42:00,72.5,51.1,29.99,WNW,298,3.0,4.0,47,0.00,,,0.00,WeatherCatV1.15B25,2013-04-21 17:42:00,
2013-04-21 10:47:00,73.0,51.6,29.99,West,277,0.0,3.0,47,0.00,,,0.00,WeatherCatV1.15B25,2013-04-21 17:47:00,
2013-04-21 10:52:00,73.7,51.6,29.99,NW,315,0.0,1.0,46,0.00,,,0.00,WeatherCatV1.15B25,2013-04-21 17:52:00,
2013-04-21 10:57:00,74.2,54.9,29.99,WSW,256,0.0,2.0,51,0.00,,,0.00,WeatherCatV1.15B25,2013-04-21 17:57:00,
2013-04-21 11:02:00,74.8,52.0,29.99,West,259,1.0,2.0,45,0.00,,,0.00,WeatherCatV1.15B25,2013-04-21 18:02:00,
2013-04-21 11:07:00,75.4,53.7,29.99,WSW,256,0.0,2.0,47,0.00,,,0.00,WeatherCatV1.15B25,2013-04-21 18:07:00,
2013-04-21 11:12:00,75.9,53.0,29.99,WSW,256,0.0,2.0,45,0.00,,,0.00,WeatherCatV1.15B25,2013-04-21 18:12:00,
2013-04-21 11:17:00,76.3,53.4,29.98,NNW,340,0.0,4.0,45,0.00,,,0.00,WeatherCatV1.15B25,2013-04-21 18:17:00,
2013-04-21 11:22:00,76.4,50.9,29.99,NW,323,5.0,7.0,41,0.00,,,0.00,WeatherCatV1.15B25,2013-04-21 18:22:00,
2013-04-21 11:27:00,76.5,54.2,29.98,NNW,332,0.0,3.0,46,0.00,,,0.00,WeatherCatV1.15B25,2013-04-21 18:27:00,
2013-04-21 11:32:00,76.9,51.4,29.99,NNW,330,0.0,3.0,41,0.00,,,0.00,WeatherCatV1.15B25,2013-04-21 18:32:00,
2013-04-21 11:37:00,76.8,49.9,29.98,WSW,249,0.0,6.0,39,0.00,,,0.00,WeatherCatV1.15B25,2013-04-21 18:37:00,
2013-04-21 11:42:00,76.9,50.0,29.98,SW,236,0.0,9.0,39,0.00,,,0.00,WeatherCatV1.15B25,2013-04-21 18:42:00,
2013-04-21 11:47:00,77.2,51.0,29.98,NW,324,0.0,5.0,40,0.00,,,0.00,WeatherCatV1.15B25,2013-04-21 18:47:00,
2013-04-21 11:52:00,77.5,51.9,29.98,NNW,330,1.0,7.0,41,0.00,,,0.00,WeatherCatV1.15B25,2013-04-21 18:52:00,
2013-04-21 11:57:00,77.7,50.0,29.98,NNW,329,3.0,3.0,38,0.00,,,0.00,WeatherCatV1.15B25,2013-04-21 18:57:00,
2013-04-21 12:02:00,78.1,53.1,29.98,NNW,333,0.0,3.0,42,0.00,,,0.00,WeatherCatV1.15B25,2013-04-21 19:02:00,
2013-04-21 12:07:00,78.7,54.3,29.97,NW,321,2.0,2.0,43,0.00,,,0.00,WeatherCatV1.15B25,2013-04-21 19:07:00,
2013-04-21 12:12:00,79.1,54.0,29.97,SSW,198,3.0,7.0,42,0.00,,,0.00,WeatherCatV1.15B25,2013-04-21 19:12:00,
2013-04-21 12:17:00,78.9,51.1,29.97,WSW,240,0.0,6.0,38,0.00,,,0.00,WeatherCatV1.15B25,2013-04-21 19:17:00,
2013-04-21 12:22:00,79.1,49.8,29.97,WSW,246,2.0,4.0,36,0.00,,,0.00,WeatherCatV1.15B25,2013-04-21 19:22:00,
2013-04-21 12:27:00,79.5,49.4,29.97,SW,236,4.0,7.0,35,0.00,,,0.00,WeatherCatV1.15B25,2013-04-21 19:27:00,
2013-04-21 12:32:00,79.8,51.2,29.96,WSW,242,1.0,1.0,37,0.00,,,0.00,WeatherCatV1.15B25,2013-04-21 19:32:00,
2013-04-21 12:37:00,80.0,50.6,29.96,WSW,242,0.0,1.0,36,0.00,,,0.00,WeatherCatV1.15B25,2013-04-21 19:37:00,
2013-04-21 12:42:00,80.3,51.6,29.96,WSW,238,1.0,3.0,37,0.00,,,0.00,WeatherCatV1.15B25,2013-04-21 19:42:00,
2013-04-21 12:47:00,80.6,51.2,29.96,NW,322,3.0,7.0,36,0.00,,,0.00,WeatherCatV1.15B25,2013-04-21 19:47:00,
2013-04-21 12:52:00,80.9,51.4,29.95,WNW,292,1.0,2.0,36,0.00,,,0.00,WeatherCatV1.15B25,2013-04-21 19:52:00,
2013-04-21 12:57:00,81.1,50.8,29.95,NNW,333,1.0,5.0,35,0.00,,,0.00,WeatherCatV1.15B25,2013-04-21 19:57:00,
2013-04-21 13:02:00,81.5,53.4,29.95,WSW,253,1.0,4.0,38,0.00,,,0.00,WeatherCatV1.15B25,2013-04-21 20:02:00,
2013-04-21 13:07:00,82.1,51.7,29.95,SW,217,0.0,3.0,35,0.00,,,0.00,WeatherCatV1.15B25,2013-04-21 20:07:00,
2013-04-21 13:12:00,82.3,52.6,29.94,SW,215,2.0,3.0,36,0.00,,,0.00,WeatherCatV1.15B25,2013-04-21 20:12:00,
2013-04-21 13:17:00,82.5,52.8,29.94,NNW,333,0.0,4.0,36,0.00,,,0.00,WeatherCatV1.15B25,2013-04-21 20:17:00,
2013-04-21 13:22:00,82.8,53.8,29.94,WNW,302,0.0,2.0,37,0.00,,,0.00,WeatherCatV1.15B25,2013-04-21 20:22:00,
2013-04-21 13:27:00,82.8,49.9,29.94,NW,325,0.0,4.0,32,0.00,,,0.00,WeatherCatV1.15B25,2013-04-21 20:27:00,
2013-04-21 13:32:00,82.5,48.8,29.93,NNW,327,0.0,2.0,31,0.00,,,0.00,WeatherCatV1.15B25,2013-04-21 20:32:00,
2013-04-21 13:37:00,82.7,51.4,29.93,WNW,299,0.0,2.0,34,0.00,,,0.00,WeatherCatV1.15B25,2013-04-21 20:37:00,
2013-04-21 13:42:00,83.2,54.2,29.93,SW,226,3.0,4.0,37,0.00,,,0.00,WeatherCatV1.15B25,2013-04-21 20:42:00,
2013-04-21 13:47:00,83.4,49.6,29.93,NW,321,1.0,4.0,31,0.00,,,0.00,WeatherCatV1.15B25,2013-04-21 20:47:00,
2013-04-21 13:52:00,82.8,50.7,29.93,NNW,331,0.0,5.0,33,0.00,,,0.00,WeatherCatV1.15B25,2013-04-21 20:52:00,
2013-04-21 13:57:00,82.8,50.7,29.93,NW,323,0.0,6.0,33,0.00,,,0.00,WeatherCatV1.15B25,2013-04-21 20:57:00,
2013-04-21 14:02:00,83.0,50.1,29.93,NNW,348,0.0,3.0,32,0.00,,,0.00,WeatherCatV1.15B25,2013-04-21 21:02:00,
2013-04-21 14:07:00,83.3,48.6,29.92,NNW,334,0.0,5.0,30,0.00,,,0.00,WeatherCatV1.15B25,2013-04-21 21:07:00,
2013-04-21 14:12:00,83.6,48.9,29.92,West,264,0.0,1.0,30,0.00,,,0.00,WeatherCatV1.15B25,2013-04-21 21:12:00,
2013-04-21 14:17:00,84.3,48.5,29.92,NNW,344,4.0,5.0,29,0.00,,,0.00,WeatherCatV1.15B25,2013-04-21 21:17:00,
2013-04-21 14:22:00,84.1,49.3,29.92,North,5,1.0,4.0,30,0.00,,,0.00,WeatherCatV1.15B25,2013-04-21 21:22:00,
2013-04-21 14:26:00,83.8,49.9,29.92,NNW,337,0.0,3.0,31,0.00,,,0.00,WeatherCatV1.15B25,2013-04-21 21:26:00,
2013-04-21 14:31:00,83.9,50.8,29.92,NW,314,0.0,5.0,32,0.00,,,0.00,WeatherCatV1.15B25,2013-04-21 21:31:00,
2013-04-21 14:36:00,84.6,49.7,29.92,WNW,286,0.0,2.0,30,0.00,,,0.00,WeatherCatV1.15B25,2013-04-21 21:36:00,
2013-04-21 14:41:00,84.8,48.0,29.91,NNW,333,2.0,2.0,28,0.00,,,0.00,WeatherCatV1.15B25,2013-04-21 21:41:00,
2013-04-21 14:46:00,84.7,49.8,29.91,WSW,256,0.0,0.0,30,0.00,,,0.00,WeatherCatV1.15B25,2013-04-21 21:46:00,
2013-04-21 14:51:00,84.7,49.8,29.91,WNW,303,0.0,1.0,30,0.00,,,0.00,WeatherCatV1.15B25,2013-04-21 21:51:00,
2013-04-21 14:56:00,85.2,50.2,29.91,WNW,303,0.0,0.0,30,0.00,,,0.00,WeatherCatV1.15B25,2013-04-21 21:56:00,
2013-04-21 15:01:00,85.8,47.9,29.91,WSW,241,6.0,9.0,27,0.00,,,0.00,WeatherCatV1.15B25,2013-04-21 22:01:00,
2013-04-21 15:06:00,86.0,43.9,29.90,WSW,248,2.0,5.0,23,0.00,,,0.00,WeatherCatV1.15B25,2013-04-21 22:06:00,
2013-04-21 15:11:00,86.2,45.1,29.90,WSW,249,0.0,0.0,24,0.00,,,0.00,WeatherCatV1.15B25,2013-04-21 22:11:00,
2013-04-21 15:16:00,86.5,44.3,29.90,NW,317,3.0,3.0,23,0.00,,,0.00,WeatherCatV1.15B25,2013-04-21 22:16:00,
2013-04-21 15:21:00,86.5,46.5,29.90,NNW,338,1.0,2.0,25,0.00,,,0.00,WeatherCatV1.15B25,2013-04-21 22:21:00,
2013-04-21 15:26:00,86.8,46.7,29.89,WNW,298,0.0,1.0,25,0.00,,,0.00,WeatherCatV1.15B25,2013-04-21 22:26:00,
2013-04-21 15:31:00,87.1,47.0,29.90,South,187,0.0,4.0,25,0.00,,,0.00,WeatherCatV1.15B25,2013-04-21 22:31:00,
2013-04-21 15:36:00,87.4,46.1,29.89,South,190,0.0,1.0,24,0.00,,,0.00,WeatherCatV1.15B25,2013-04-21 22:36:00,
2013-04-21 15:41:00,87.4,46.1,29.89,NNW,345,0.0,1.0,24,0.00,,,0.00,WeatherCatV1.15B25,2013-04-21 22:41:00,
2013-04-21 15:46:00,87.2,44.9,29.89,WSW,257,1.0,2.0,23,0.00,,,0.00,WeatherCatV1.15B25,2013-04-21 22:46:00,
2013-04-21 15:51:00,87.4,50.3,29.89,WSW,255,1.0,1.0,28,0.00,,,0.00,WeatherCatV1.15B25,2013-04-21 22:51:00,
2013-04-21 15:56:00,87.5,49.4,29.89,NW,320,0.0,1.0,27,0.00,,,0.00,WeatherCatV1.15B25,2013-04-21 22:56:00,
2013-04-21 16:01:00,87.7,46.4,29.89,West,274,0.0,0.0,24,0.00,,,0.00,WeatherCatV1.15B25,2013-04-21 23:01:00,
2013-04-21 16:06:00,87.8,47.6,29.88,NNW,348,0.0,3.0,25,0.00,,,0.00,WeatherCatV1.15B25,2013-04-21 23:06:00,
2013-04-21 16:11:00,87.5,46.2,29.88,NNW,344,0.0,0.0,24,0.00,,,0.00,WeatherCatV1.15B25,2013-04-21 23:11:00,
2013-04-21 16:16:00,87.3,48.2,29.88,NNW,348,1.0,3.0,26,0.00,,,0.00,WeatherCatV1.15B25,2013-04-21 23:16:00,
2013-04-21 16:21:00,86.8,46.7,29.88,North,350,3.0,4.0,25,0.00,,,0.00,WeatherCatV1.15B25,2013-04-21 23:21:00,
2013-04-21 16:26:00,86.8,49.7,29.88,North,350,0.0,1.0,28,0.00,,,0.00,WeatherCatV1.15B25,2013-04-21 23:26:00,
2013-04-21 16:31:00,87.1,47.0,29.88,North,350,0.0,1.0,25,0.00,,,0.00,WeatherCatV1.15B25,2013-04-21 23:31:00,
2013-04-21 16:36:00,87.5,47.3,29.88,WSW,250,3.0,6.0,25,0.00,,,0.00,WeatherCatV1.15B25,2013-04-21 23:36:00,
2013-04-21 16:41:00,87.8,46.5,29.88,WSW,250,0.0,1.0,24,0.00,,,0.00,WeatherCatV1.15B25,2013-04-21 23:41:00,
2013-04-21 16:46:00,87.9,46.6,29.88,NNW,331,0.0,1.0,24,0.00,,,0.00,WeatherCatV1.15B25,2013-04-21 23:46:00,
2013-04-21 16:51:00,87.7,48.5,29.87,NNW,329,0.0,4.0,26,0.00,,,0.00,WeatherCatV1.15B25,2013-04-21 23:51:00,
2013-04-21 16:56:00,87.8,48.6,29.87,NNW,329,0.0,0.0,26,0.00,,,0.00,WeatherCatV1.15B25,2013-04-21 23:56:00,
2013-04-21 17:01:00,87.7,48.5,29.87,NNW,330,0.0,1.0,26,0.00,,,0.00,WeatherCatV1.15B25,2013-04-22 00:01:00,
2013-04-21 17:06:00,87.7,45.3,29.87,NW,312,0.0,2.0,23,0.00,,,0.00,WeatherCatV1.15B25,2013-04-22 00:06:00,
2013-04-21 17:11:00,87.9,48.7,29.87,WSW,250,0.0,0.0,26,0.00,,,0.00,WeatherCatV1.15B25,2013-04-22 00:11:00,
2013-04-21 17:16:00,88.0,45.5,29.87,NNW,327,2.0,4.0,23,0.00,,,0.00,WeatherCatV1.15B25,2013-04-22 00:16:00,
2013-04-21 17:21:00,87.8,50.6,29.87,NNW,345,0.0,1.0,28,0.00,,,0.00,WeatherCatV1.15B25,2013-04-22 00:21:00,
2013-04-21 17:26:00,88.0,47.7,29.87,NNW,345,0.0,1.0,25,0.00,,,0.00,WeatherCatV1.15B25,2013-04-22 00:26:00,
2013-04-21 17:31:00,88.2,50.0,29.87,NNW,345,0.0,0.0,27,0.00,,,0.00,WeatherCatV1.15B25,2013-04-22 00:31:00,
2013-04-21 17:36:00,88.4,49.1,29.87,NNW,345,0.0,1.0,26,0.00,,,0.00,WeatherCatV1.15B25,2013-04-22 00:36:00,
2013-04-21 17:41:00,88.5,50.2,29.86,NNW,345,0.0,1.0,27,0.00,,,0.00,WeatherCatV1.15B25,2013-04-22 00:41:00,
2013-04-21 17:46:00,88.6,47.1,29.86,NNW,344,0.0,0.0,24,0.00,,,0.00,WeatherCatV1.15B25,2013-04-22 00:46:00,
2013-04-21 17:51:00,88.6,48.2,29.86,NNW,342,4.0,5.0,25,0.00,,,0.00,WeatherCatV1.15B25,2013-04-22 00:51:00,
2013-04-21 17:56:00,88.4,50.1,29.87,WNW,301,1.0,1.0,27,0.00,,,0.00,WeatherCatV1.15B25,2013-04-22 00:56:00,
2013-04-21 18:01:00,88.0,48.8,29.86,WNW,292,0.0,1.0,26,0.00,,,0.00,WeatherCatV1.15B25,2013-04-22 01:01:00,
2013-04-21 18:06:00,87.8,52.5,29.86,WNW,292,0.0,0.0,30,0.00,,,0.00,WeatherCatV1.15B25,2013-04-22 01:06:00,
2013-04-21 18:11:00,87.6,51.4,29.86,WNW,292,0.0,1.0,29,0.00,,,0.00,WeatherCatV1.15B25,2013-04-22 01:11:00,
2013-04-21 18:16:00,87.2,51.0,29.86,NW,325,0.0,1.0,29,0.00,,,0.00,WeatherCatV1.15B25,2013-04-22 01:16:00,
2013-04-21 18:21:00,87.0,51.8,29.86,NW,325,0.0,1.0,30,0.00,,,0.00,WeatherCatV1.15B25,2013-04-22 01:21:00,
2013-04-21 18:26:00,86.8,53.4,29.86,NW,325,0.0,0.0,32,0.00,,,0.00,WeatherCatV1.15B25,2013-04-22 01:26:00,
2013-04-21 18:31:00,86.4,51.3,29.86,NW,308,0.0,0.0,30,0.00,,,0.00,WeatherCatV1.15B25,2013-04-22 01:31:00,
2013-04-21 18:36:00,85.9,50.8,29.86,NW,308,0.0,1.0,30,0.00,,,0.00,WeatherCatV1.15B25,2013-04-22 01:36:00,
2013-04-21 18:41:00,85.5,51.4,29.86,NW,308,0.0,0.0,31,0.00,,,0.00,WeatherCatV1.15B25,2013-04-22 01:41:00,
2013-04-21 18:46:00,85.0,51.8,29.86,NW,307,0.0,0.0,32,0.00,,,0.00,WeatherCatV1.15B25,2013-04-22 01:46:00,
2013-04-21 18:51:00,84.6,52.3,29.86,NW,308,0.0,0.0,33,0.00,,,0.00,WeatherCatV1.15B25,2013-04-22 01:51:00,
2013-04-21 18:56:00,84.2,51.9,29.86,NW,308,0.0,0.0,33,0.00,,,0.00,WeatherCatV1.15B25,2013-04-22 01:56:00,
2013-04-21 19:01:00,83.9,51.7,29.86,NW,308,0.0,0.0,33,0.00,,,0.00,WeatherCatV1.15B25,2013-04-22 02:01:00,
2013-04-21 19:06:00,83.3,52.0,29.86,NW,307,0.0,1.0,34,0.00,,,0.00,WeatherCatV1.15B25,2013-04-22 02:06:00,
2013-04-21 19:11:00,83.0,51.7,29.86,NW,307,0.0,0.0,34,0.00,,,0.00,WeatherCatV1.15B25,2013-04-22 02:11:00,
2013-04-21 19:16:00,82.7,52.2,29.86,NW,308,0.0,0.0,35,0.00,,,0.00,WeatherCatV1.15B25,2013-04-22 02:16:00,
2013-04-21 19:21:00,82.3,51.9,29.86,NW,308,0.0,0.0,35,0.00,,,0.00,WeatherCatV1.15B25,2013-04-22 02:21:00,
2013-04-21 19:26:00,81.5,51.9,29.86,NW,307,0.0,0.0,36,0.00,,,0.00,WeatherCatV1.15B25,2013-04-22 02:26:00,
2013-04-21 19:31:00,80.2,51.5,29.86,NW,308,0.0,0.0,37,0.00,,,0.00,WeatherCatV1.15B25,2013-04-22 02:31:00,
2013-04-21 19:36:00,79.1,52.7,29.86,NW,308,0.0,0.0,40,0.00,,,0.00,WeatherCatV1.15B25,2013-04-22 02:36:00,
2013-04-21 19:41:00,78.0,53.0,29.86,NW,308,0.0,0.0,42,0.00,,,0.00,WeatherCatV1.15B25,2013-04-22 02:41:00,
2013-04-21 19:46:00,76.8,55.0,29.86,NW,308,0.0,0.0,47,0.00,,,0.00,WeatherCatV1.15B25,2013-04-22 02:46:00,
2013-04-21 19:51:00,75.5,55.5,29.86,NW,308,0.0,0.0,50,0.00,,,0.00,WeatherCatV1.15B25,2013-04-22 02:51:00,
2013-04-21 19:56:00,74.2,54.3,29.86,NW,307,0.0,0.0,50,0.00,,,0.00,WeatherCatV1.15B25,2013-04-22 02:56:00,
2013-04-21 20:01:00,73.2,52.9,29.86,NW,308,0.0,0.0,49,0.00,,,0.00,WeatherCatV1.15B25,2013-04-22 03:01:00,
2013-04-21 20:06:00,72.6,52.3,29.87,NW,308,0.0,0.0,49,0.00,,,0.00,WeatherCatV1.15B25,2013-04-22 03:06:00,
2013-04-21 20:11:00,72.0,52.3,29.87,NW,308,0.0,0.0,50,0.00,,,0.00,WeatherCatV1.15B25,2013-04-22 03:11:00,
2013-04-21 20:16:00,71.2,52.7,29.87,NW,308,0.0,0.0,52,0.00,,,0.00,WeatherCatV1.15B25,2013-04-22 03:16:00,
2013-04-21 20:21:00,70.4,52.4,29.87,NW,307,0.0,0.0,53,0.00,,,0.00,WeatherCatV1.15B25,2013-04-22 03:21:00,
2013-04-21 20:26:00,69.8,51.9,29.87,NW,308,0.0,0.0,53,0.00,,,0.00,WeatherCatV1.15B25,2013-04-22 03:26:00,
2013-04-21 20:31:00,69.5,51.6,29.88,NW,307,0.0,0.0,53,0.00,,,0.00,WeatherCatV1.15B25,2013-04-22 03:31:00,
2013-04-21 20:36:00,69.2,51.8,29.88,NW,308,0.0,0.0,54,0.00,,,0.00,WeatherCatV1.15B25,2013-04-22 03:36:00,
2013-04-21 20:41:00,68.9,51.6,29.88,NW,307,0.0,0.0,54,0.00,,,0.00,WeatherCatV1.15B25,2013-04-22 03:41:00,
2013-04-21 20:46:00,68.5,50.7,29.88,NW,308,0.0,0.0,53,0.00,,,0.00,WeatherCatV1.15B25,2013-04-22 03:46:00,
2013-04-21 20:51:00,68.3,51.0,29.88,NW,308,0.0,0.0,54,0.00,,,0.00,WeatherCatV1.15B25,2013-04-22 03:51:00,
2013-04-21 20:56:00,68.1,50.8,29.88,NW,307,0.0,0.0,54,0.00,,,0.00,WeatherCatV1.15B25,2013-04-22 03:56:00,
2013-04-21 21:01:00,67.9,50.6,29.88,NW,307,0.0,0.0,54,0.00,,,0.00,WeatherCatV1.15B25,2013-04-22 04:01:00,
2013-04-21 21:06:00,67.8,50.0,29.89,NW,308,0.0,0.0,53,0.00,,,0.00,WeatherCatV1.15B25,2013-04-22 04:06:00,
2013-04-21 21:11:00,67.6,49.8,29.89,NW,308,0.0,0.0,53,0.00,,,0.00,WeatherCatV1.15B25,2013-04-22 04:11:00,
2013-04-21 21:16:00,67.6,49.3,29.89,NW,307,0.0,0.0,52,0.00,,,0.00,WeatherCatV1.15B25,2013-04-22 04:16:00,
2013-04-21 21:21:00,67.5,49.2,29.89,NW,308,0.0,0.0,52,0.00,,,0.00,WeatherCatV1.15B25,2013-04-22 04:21:00,
2013-04-21 21:26:00,67.4,49.7,29.89,NW,308,0.0,0.0,53,0.00,,,0.00,WeatherCatV1.15B25,2013-04-22 04:26:00,
2013-04-21 21:31:00,67.3,49.1,29.89,NW,307,0.0,0.0,52,0.00,,,0.00,WeatherCatV1.15B25,2013-04-22 04:31:00,
2013-04-21 21:36:00,67.2,49.5,29.89,NW,308,0.0,0.0,53,0.00,,,0.00,WeatherCatV1.15B25,2013-04-22 04:36:00,
2013-04-21 21:41:00,67.2,49.5,29.90,NW,308,0.0,0.0,53,0.00,,,0.00,WeatherCatV1.15B25,2013-04-22 04:41:00,
2013-04-21 21:46:00,67.1,49.4,29.90,NW,307,0.0,0.0,53,0.00,,,0.00,WeatherCatV1.15B25,2013-04-22 04:46:00,
2013-04-21 21:51:00,67.1,49.9,29.90,NW,307,0.0,0.0,54,0.00,,,0.00,WeatherCatV1.15B25,2013-04-22 04:51:00,
2013-04-21 21:56:00,67.0,49.8,29.90,NW,308,0.0,0.0,54,0.00,,,0.00,WeatherCatV1.15B25,2013-04-22 04:56:00,
2013-04-21 22:01:00,67.0,49.8,29.90,NW,308,0.0,0.0,54,0.00,,,0.00,WeatherCatV1.15B25,2013-04-22 05:01:00,
2013-04-21 22:06:00,66.8,49.6,29.90,NW,307,0.0,0.0,54,0.00,,,0.00,WeatherCatV1.15B25,2013-04-22 05:06:00,
2013-04-21 22:11:00,66.6,49.4,29.90,NW,308,0.0,0.0,54,0.00,,,0.00,WeatherCatV1.15B25,2013-04-22 05:11:00,
2013-04-21 22:16:00,66.4,49.2,29.90,NW,308,0.0,0.0,54,0.00,,,0.00,WeatherCatV1.15B25,2013-04-22 05:16:00,
2013-04-21 22:21:00,66.1,49.0,29.90,NW,307,0.0,0.0,54,0.00,,,0.00,WeatherCatV1.15B25,2013-04-22 05:21:00,
2013-04-21 22:26:00,65.7,49.1,29.90,NW,307,0.0,0.0,55,0.00,,,0.00,WeatherCatV1.15B25,2013-04-22 05:26:00,
2013-04-21 22:31:00,65.3,48.7,29.90,NW,308,0.0,0.0,55,0.00,,,0.00,WeatherCatV1.15B25,2013-04-22 05:31:00,
2013-04-21 22:36:00,64.9,48.8,29.90,NW,308,0.0,0.0,56,0.00,,,0.00,WeatherCatV1.15B25,2013-04-22 05:36:00,
2013-04-21 22:41:00,64.4,48.8,29.90,NW,308,0.0,0.0,57,0.00,,,0.00,WeatherCatV1.15B25,2013-04-22 05:41:00,
2013-04-21 22:46:00,63.8,49.6,29.90,NW,307,0.0,0.0,60,0.00,,,0.00,WeatherCatV1.15B25,2013-04-22 05:46:00,
2013-04-21 22:51:00,63.4,49.3,29.90,NW,308,0.0,0.0,60,0.00,,,0.00,WeatherCatV1.15B25,2013-04-22 05:51:00,
2013-04-21 22:56:00,63.4,49.3,29.90,NW,307,0.0,0.0,60,0.00,,,0.00,WeatherCatV1.15B25,2013-04-22 05:56:00,
2013-04-21 23:01:00,63.3,49.2,29.90,NW,307,0.0,0.0,60,0.00,,,0.00,WeatherCatV1.15B25,2013-04-22 06:01:00,
2013-04-21 23:02:00,63.3,49.2,29.90,NW,308,0.0,0.0,60,0.00,,,0.00,WeatherCatV1.15B25,2013-04-22 06:02:00,
2013-04-21 23:03:00,63.3,49.2,29.90,NW,308,0.0,0.0,60,0.00,,,0.00,WeatherCatV1.15B25,2013-04-22 06:03:00,
2013-04-21 23:08:00,63.2,49.1,29.90,NW,307,0.0,0.0,60,0.00,,,0.00,WeatherCatV1.15B25,2013-04-22 06:08:00,
2013-04-21 23:13:00,63.1,49.0,29.90,NW,308,0.0,0.0,60,0.00,,,0.00,WeatherCatV1.15B25,2013-04-22 06:13:00,
2013-04-21 23:18:00,62.9,49.2,29.90,NW,308,0.0,0.0,61,0.00,,,0.00,WeatherCatV1.15B25,2013-04-22 06:18:00,
2013-04-21 23:23:00,62.7,49.5,29.90,NW,308,0.0,0.0,62,0.00,,,0.00,WeatherCatV1.15B25,2013-04-22 06:23:00,
2013-04-21 23:28:00,62.4,49.2,29.90,NW,308,0.0,0.0,62,0.00,,,0.00,WeatherCatV1.15B25,2013-04-22 06:28:00,
2013-04-21 23:33:00,62.0,48.8,29.90,NW,307,0.0,0.0,62,0.00,,,0.00,WeatherCatV1.15B25,2013-04-22 06:33:00,
2013-04-21 23:38:00,61.5,48.8,29.90,NW,308,0.0,0.0,63,0.00,,,0.00,WeatherCatV1.15B25,2013-04-22 06:38:00,
2013-04-21 23:43:00,60.9,49.1,29.90,NW,307,0.0,0.0,65,0.00,,,0.00,WeatherCatV1.15B25,2013-04-22 06:43:00,
2013-04-21 23:48:00,60.5,49.5,29.90,NW,308,0.0,0.0,67,0.00,,,0.00,WeatherCatV1.15B25,2013-04-22 06:48:00,
2013-04-21 23:53:00,60.2,49.6,29.90,NW,308,0.0,0.0,68,0.00,,,0.00,WeatherCatV1.15B25,2013-04-22 06:53:00,
2013-04-21 23:58:00,59.8,49.2,29.90,NW,307,0.0,0.0,68,0.00,,,0.00,WeatherCatV1.15B25,2013-04-22 06:58:00,